Regional Weather Roundup
Issued by NWS Burlington, VT

Home | Current Version | Previous Version | Text Only | Print | Product List | Glossary On
Versions: 1 2 3 4 5 6 7 8 9 10 11 12 13 14 15 16 17 18 19 20 21 22 23 24 25 26 27 28 29 30 31 32 33 34 35 36 37 38 39 40 41 42 43 44 45 46 47 48 49 50
000
ASUS41 KBTV 021310
RWRBTV
VERMONT REGIONAL WEATHER ROUNDUP
NATIONAL WEATHER SERVICE BURLINGTON VT
900 AM EDT MON MAY 02 2016

NOTE: "FAIR" INDICATES FEW OR NO CLOUDS BELOW 12,000 FEET WITH NO
SIGNIFICANT WEATHER AND/OR OBSTRUCTIONS TO VISIBILITY.

* THESE REPORTS ARE NOT UNDER NWS QUALITY CONTROL AND/OR DO NOT
  REPORT WEATHER SUCH AS PRECIPITATION AND FOG.

VTZ001>019-021400-
_____VERMONT_____


CITY           SKY/WX    TMP DP  RH WIND       PRES   REMARKS
BURLINGTON     CLOUDY    46  40  79 SE8       29.98F
MONTPELIER     CLOUDY    40  38  93 S3        30.04F
MORRISVILLE    CLOUDY    42  38  85 CALM      30.02F
ST. JOHNSBURY*   N/A     41  38  89 MISG      30.01F
LYNDONVILLE*   CLOUDY    39  38  97 CALM      30.03F FOG
MIDDLEBURY*    CLOUDY    46  42  86 CALM      29.98S
RUTLAND*       CLOUDY    43  36  75 SE14G20   30.00S
SPRINGFIELD    CLOUDY    41  40  96 CALM      30.04F FOG
HIGHGATE*      CLOUDY    45  40  83 E7        29.98F
NEWPORT*       CLOUDY    40  38  91 SE3       30.02F
BENNINGTON     CLOUDY    48  41  76 E8        29.97S

_____LAKE CHAMPLAIN_____


CITY           SKY/WX    TMP DP  RH WIND       PRES   REMARKS
COLCHESTER RF*   N/A     43  43 100 S10         N/A
DIAMOND ISL*     N/A     45  43  93 S8          N/A

$$

NYZ007-026>031-035-052-083-087-021400-
_____NORTHERN NEW YORK_____


CITY           SKY/WX    TMP DP  RH WIND       PRES   REMARKS
PLATTSBURGH    CLOUDY    45  42  89 SE7       29.97F
SARANAC LAKE   CLOUDY    43  40  89 E5        29.91F FOG
MASSENA        CLOUDY    47  44  90 NE9       29.97F
OGDENSBURG*    CLOUDY    46  46 100 NE7       29.96S FOG
WATERTOWN      CLOUDY    46  44  93 N8        29.95R FOG
FT DRUM        CLOUDY    45  44  97 NE7       29.93R
ALBANY         CLOUDY    47  41  80 S3        29.98F
GLENS FALLS    CLOUDY    44  42  93 CALM      29.98F FOG

$$
NHZ002-005-011-021400-
_____NEW HAMPSHIRE_____


CITY           SKY/WX    TMP DP  RH WIND       PRES   REMARKS
LEBANON        CLOUDY    44  41  89 CALM      30.02F
KEENE          CLOUDY    45  39  81 N3        30.05R
MT WASHINGTON  FRZ DRZL  28  28 100 S20         N/A  VSB 0   WCI  15
PLYMOUTH       CLOUDY    42  41  97 E5        30.07F FOG
WHITEFIELD     CLOUDY    42  36  79 E8        30.02F

$$

_____REGIONAL QUEBEC LOCATIONS_____


CITY           SKY/WX    TMP DP  RH WIND       PRES   REMARKS
MONTREAL       CLOUDY    46  41  81 E10       30.00F
QUEBEC CITY    DRIZZLE   43  37  81 E9G18     30.09F
SHERBROOKE     CLOUDY    41  37  87 E6        30.04S

_____REGIONAL ONTARIO LOCATIONS_____


CITY           SKY/WX    TMP DP  RH WIND       PRES   REMARKS
OTTAWA         LGT RAIN  45  43  93 NE10      29.98F

______KEY______
VSB  - VISIBILITY IN MILES
WCI  - WIND CHILL INDEX
HX   - HEAT INDEX
$$
NNNN



USA.gov is the U.S. government's official web portal to all federal, state and local government web resources and services.